Location: Wiler
(46.4041°N, 7.7840°E)
Time: 03:42:24
(UTC+00:00)

ATLAS CENTAUR R/B - Pass Details

Date: 09 April 2020
Orbit: 471 x 675 km, 64.7° (Epoch: 01 June)

Event Time Altitude Azimuth Distance (km) Brightness Sun altitude
Rises 20:16:32 0° 329° (NNW) 2,686 6.1 -20.6°
Reaches altitude 10° 20:19:05 10° 343° (NNW) 1,756 4.6 -21.0°
Maximum altitude 20:22:20 25° 40° (NE) 1,054 2.7 -21.4°
Enters shadow 20:22:26 25° 43° (NE) 1,054 2.7 -21.4°
